San Luis Obispo, CA

10:30 PM PST on December 05, 2019 (GMT -0800)
San Luis Obispo County-McChesney

Weather History for KSBP - November, 2019

Change the Weather History Date:

Saturday, November 16, 2019

  Actual Average Record
Temperature  
Mean Temperature 68 °F -  
Max Temperature 82 °F 68 °F 89 °F (1949)
Min Temperature 54 °F 44 °F 32 °F (1964)
Cooling Degree Days 3    
Growing Degree Days 18 (Base 50)    
Moisture  
Dew Point 42 °F    
Average Humidity 42    
Maximum Humidity 72    
Minimum Humidity 24    
Precipitation  
Precipitation 0.00 in - - ()
Sea Level Pressure  
Sea Level Pressure 30.01 in    
Wind  
Wind Speed 4 mph (SW)    
Max Wind Speed 10 mph    
Max Gust Speed -    
Visibility 10 miles    
Events      
Averages and records for this station are not official NWS values.
T = Trace of Precipitation, MM = Missing Value Source: NWS Daily Summary

Daily Weather History Graph

Daily Weather History Graph

Search for Another Location

Airport or City:

Astronomy

Nov. 16, 2019 Rise Set
Actual Time 6:38 AM PST 4:55 PM PST
Civil Twilight 6:11 AM PST 5:22 PM PST
Nautical Twilight 5:40 AM PST 5:53 PM PST
Astronomical Twilight 5:10 AM PST 6:23 PM PST
Moon 8:37 PM PST (11/16) 10:33 AM PST (11/16)
Length of Visible Light 11h 11m
Length of Day
10h 17m
Waning Gibbous, 81% of the Moon is Illuminated
Nov 16
Waning Gibbous
Nov 19
Last Quarter
Nov 26
New
Dec 3
First Quarter
Dec 11
Full

Hourly Weather History & Observations

Time (PST) Temp. Dew Point Humidity Pressure Visibility Wind Dir Wind Speed Gust Speed Precip Events Conditions
12:56 AM 61.0 °F 45.0 °F 56% 30.05 in 10.0 mi SE 3.5 mph - N/A   Clear
1:56 AM 54.0 °F 45.0 °F 72% 30.05 in 10.0 mi Variable 3.5 mph - N/A   Clear
2:56 AM 57.9 °F 46.0 °F 65% 30.03 in 10.0 mi SSW 8.1 mph - N/A   Clear
3:56 AM 54.0 °F 45.0 °F 72% 30.04 in 10.0 mi SE 3.5 mph - N/A   Clear
4:56 AM 59.0 °F 46.0 °F 62% 30.03 in 10.0 mi SSW 6.9 mph - N/A   Clear
5:56 AM 57.9 °F 45.0 °F 62% 30.04 in 10.0 mi SW 8.1 mph - N/A   Clear
6:56 AM 61.0 °F 44.1 °F 54% 30.04 in 10.0 mi WSW 4.6 mph - N/A   Clear
7:56 AM 62.1 °F 46.0 °F 56% 30.05 in 10.0 mi Variable 3.5 mph - N/A   Clear
8:56 AM 66.9 °F 45.0 °F 45% 30.05 in 10.0 mi Calm Calm - N/A   Clear
9:56 AM 72.0 °F 44.1 °F 37% 30.05 in 10.0 mi Variable 3.5 mph - N/A   Clear
10:56 AM 77.0 °F 43.0 °F 30% 30.02 in 10.0 mi Calm Calm - N/A   Clear
11:56 AM 80.1 °F 43.0 °F 27% 30.00 in 10.0 mi North 5.8 mph - N/A   Clear
12:56 PM 82.9 °F 42.1 °F 24% 29.97 in 10.0 mi NW 6.9 mph - N/A   Clear
1:56 PM 82.9 °F 43.0 °F 24% 29.96 in 10.0 mi NNW 9.2 mph - N/A   Clear
2:56 PM 82.0 °F 43.0 °F 25% 29.96 in 10.0 mi NNW 10.4 mph - N/A   Clear
3:56 PM 80.1 °F 41.0 °F 25% 29.96 in 10.0 mi NW 8.1 mph - N/A   Clear
4:56 PM 75.9 °F 37.9 °F 25% 29.98 in 10.0 mi West 4.6 mph - N/A   Clear
5:56 PM 75.0 °F 36.0 °F 24% 29.99 in 10.0 mi Variable 3.5 mph - N/A   Clear
6:56 PM 66.0 °F 39.9 °F 38% 29.99 in 10.0 mi SE 3.5 mph - N/A   Clear
7:56 PM 64.0 °F 37.9 °F 38% 30.01 in 10.0 mi Calm Calm - N/A   Clear
8:56 PM 71.1 °F 37.9 °F 30% 30.01 in 10.0 mi SSW 4.6 mph - N/A   Clear
9:56 PM 66.9 °F 37.9 °F 34% 30.02 in 10.0 mi Calm Calm - N/A   Clear
10:56 PM 61.0 °F 39.0 °F 44% 30.02 in 10.0 mi Calm Calm - N/A   Clear
11:56 PM 57.9 °F 39.9 °F 51% 30.02 in 10.0 mi East 4.6 mph - N/A   Clear